Year,Month,Day,Hour,Minute,Value (Times are PST for temperature in C)
2014,04,14,00,00,8.60
2014,04,14,00,01,8.60
2014,04,14,00,02,8.60
2014,04,14,00,03,8.60
2014,04,14,00,04,8.60
2014,04,14,00,05,8.70
2014,04,14,00,06,8.70
2014,04,14,00,07,8.70
2014,04,14,00,08,8.70
2014,04,14,00,09,8.70
2014,04,14,00,10,8.70
2014,04,14,00,11,8.70
2014,04,14,00,12,8.70
2014,04,14,00,13,8.70
2014,04,14,00,14,8.70
2014,04,14,00,15,8.70
2014,04,14,00,16,8.70
2014,04,14,00,17,8.70
2014,04,14,00,18,8.70
2014,04,14,00,19,8.60
2014,04,14,00,20,8.50
2014,04,14,00,21,8.40
2014,04,14,00,22,8.30
2014,04,14,00,23,8.20
2014,04,14,00,24,8.20
2014,04,14,00,25,8.10
2014,04,14,00,26,8.00
2014,04,14,00,27,7.90
2014,04,14,00,28,7.90
2014,04,14,00,29,7.80
2014,04,14,00,30,7.80
2014,04,14,00,31,7.80
2014,04,14,00,32,7.80
2014,04,14,00,33,7.80
2014,04,14,00,34,7.80
2014,04,14,00,35,7.80
2014,04,14,00,36,7.70
2014,04,14,00,37,7.70
2014,04,14,00,38,7.70
2014,04,14,00,39,7.70
2014,04,14,00,40,7.70
2014,04,14,00,41,7.70
2014,04,14,00,42,7.60
2014,04,14,00,43,7.60
2014,04,14,00,44,7.60
2014,04,14,00,45,7.60
2014,04,14,00,46,7.60
2014,04,14,00,47,7.60
2014,04,14,00,48,7.60
2014,04,14,00,49,7.50
2014,04,14,00,50,7.50
2014,04,14,00,51,7.40
2014,04,14,00,52,7.40
2014,04,14,00,53,7.40
2014,04,14,00,54,7.30
2014,04,14,00,55,7.30
2014,04,14,00,56,7.30
2014,04,14,00,57,7.30
2014,04,14,00,58,7.30
2014,04,14,00,59,7.40
2014,04,14,01,00,7.40
2014,04,14,01,01,7.40
2014,04,14,01,02,7.40
2014,04,14,01,03,7.50
2014,04,14,01,04,7.50
2014,04,14,01,05,7.50
2014,04,14,01,06,7.50
2014,04,14,01,07,7.50
2014,04,14,01,08,7.50
2014,04,14,01,09,7.40
2014,04,14,01,10,7.40
2014,04,14,01,11,7.40
2014,04,14,01,12,7.30
2014,04,14,01,13,7.30
2014,04,14,01,14,7.30
2014,04,14,01,15,7.20
2014,04,14,01,16,7.20
2014,04,14,01,17,7.20
2014,04,14,01,18,7.20
2014,04,14,01,19,7.30
2014,04,14,01,20,7.30
2014,04,14,01,21,7.40
2014,04,14,01,22,7.50
2014,04,14,01,23,7.60
2014,04,14,01,24,7.70
2014,04,14,01,25,7.80
2014,04,14,01,26,7.80
2014,04,14,01,27,7.90
2014,04,14,01,28,7.90
2014,04,14,01,29,7.90
2014,04,14,01,30,7.90
2014,04,14,01,31,8.00
2014,04,14,01,32,8.10
2014,04,14,01,33,8.10
2014,04,14,01,34,8.10
2014,04,14,01,35,8.10
2014,04,14,01,36,8.00
2014,04,14,01,37,8.00
2014,04,14,01,38,7.90
2014,04,14,01,39,7.80
2014,04,14,01,40,7.80
2014,04,14,01,41,7.70
2014,04,14,01,42,7.60
2014,04,14,01,43,7.60
2014,04,14,01,44,7.50
2014,04,14,01,45,7.50
2014,04,14,01,46,7.40
2014,04,14,01,47,7.40
2014,04,14,01,48,7.40
2014,04,14,01,49,7.40
2014,04,14,01,50,7.40
2014,04,14,01,51,7.40
2014,04,14,01,52,7.50
2014,04,14,01,53,7.60
2014,04,14,01,54,7.60
2014,04,14,01,55,7.60
2014,04,14,01,56,7.70
2014,04,14,01,57,7.70
2014,04,14,01,58,7.70
2014,04,14,01,59,7.70
2014,04,14,02,00,7.70
2014,04,14,02,01,7.70
2014,04,14,02,02,7.70
2014,04,14,02,03,7.80
2014,04,14,02,04,7.80
2014,04,14,02,05,7.80
2014,04,14,02,06,7.70
2014,04,14,02,07,7.70
2014,04,14,02,08,7.60
2014,04,14,02,09,7.60
2014,04,14,02,10,7.50
2014,04,14,02,11,7.40
2014,04,14,02,12,7.40
2014,04,14,02,13,7.40
2014,04,14,02,14,7.40
2014,04,14,02,15,7.30
2014,04,14,02,16,7.30
2014,04,14,02,17,7.20
2014,04,14,02,18,7.10
2014,04,14,02,19,7.10
2014,04,14,02,20,7.00
2014,04,14,02,21,7.00
2014,04,14,02,22,7.00
2014,04,14,02,23,6.90
2014,04,14,02,24,6.90
2014,04,14,02,25,7.00
2014,04,14,02,26,7.00
2014,04,14,02,27,7.10
2014,04,14,02,28,7.10
2014,04,14,02,29,7.10
2014,04,14,02,30,7.00
2014,04,14,02,31,7.00
2014,04,14,02,32,6.90
2014,04,14,02,33,6.90
2014,04,14,02,34,6.90
2014,04,14,02,35,6.90
2014,04,14,02,36,6.90
2014,04,14,02,37,6.80
2014,04,14,02,38,6.80
2014,04,14,02,39,6.70
2014,04,14,02,40,6.60
2014,04,14,02,41,6.60
2014,04,14,02,42,6.60
2014,04,14,02,43,6.70
2014,04,14,02,44,6.70
2014,04,14,02,45,6.70
2014,04,14,02,46,6.70
2014,04,14,02,47,6.70
2014,04,14,02,48,6.80
2014,04,14,02,49,6.70
2014,04,14,02,50,6.70
2014,04,14,02,51,6.80
2014,04,14,02,52,6.70
2014,04,14,02,53,6.70
2014,04,14,02,54,6.70
2014,04,14,02,55,6.70
2014,04,14,02,56,6.60
2014,04,14,02,57,6.60
2014,04,14,02,58,6.60
2014,04,14,02,59,6.70
2014,04,14,03,00,6.70
2014,04,14,03,01,6.70
2014,04,14,03,02,6.80
2014,04,14,03,03,6.80
2014,04,14,03,04,6.80
2014,04,14,03,05,6.90
2014,04,14,03,06,6.90
2014,04,14,03,07,6.90
2014,04,14,03,08,7.00
2014,04,14,03,09,7.00
2014,04,14,03,10,7.20
2014,04,14,03,11,7.30
2014,04,14,03,12,7.30
2014,04,14,03,13,7.30
2014,04,14,03,14,7.30
2014,04,14,03,15,7.20
2014,04,14,03,16,7.10
2014,04,14,03,17,7.00
2014,04,14,03,18,7.00
2014,04,14,03,19,7.00
2014,04,14,03,20,7.00
2014,04,14,03,21,7.00
2014,04,14,03,22,7.00
2014,04,14,03,23,7.00
2014,04,14,03,24,7.00
2014,04,14,03,25,6.90
2014,04,14,03,26,6.90
2014,04,14,03,27,6.90
2014,04,14,03,28,6.90
2014,04,14,03,29,6.90
2014,04,14,03,30,6.90
2014,04,14,03,31,6.90
2014,04,14,03,32,6.80
2014,04,14,03,33,6.80
2014,04,14,03,34,6.80
2014,04,14,03,35,6.70
2014,04,14,03,36,6.70
2014,04,14,03,37,6.70
2014,04,14,03,38,6.70
2014,04,14,03,39,6.70
2014,04,14,03,40,6.70
2014,04,14,03,41,6.80
2014,04,14,03,42,6.80
2014,04,14,03,43,6.90
2014,04,14,03,44,7.00
2014,04,14,03,45,7.10
2014,04,14,03,46,7.10
2014,04,14,03,47,7.10
2014,04,14,03,48,7.00
2014,04,14,03,49,6.90
2014,04,14,03,50,6.90
2014,04,14,03,51,6.80
2014,04,14,03,52,6.70
2014,04,14,03,53,6.80
2014,04,14,03,54,6.70
2014,04,14,03,55,6.60
2014,04,14,03,56,6.70
2014,04,14,03,57,6.70
2014,04,14,03,58,6.70
2014,04,14,03,59,6.70
2014,04,14,04,00,6.70
2014,04,14,04,01,6.70
2014,04,14,04,02,6.70
2014,04,14,04,03,6.70
2014,04,14,04,04,6.80
2014,04,14,04,05,7.10
2014,04,14,04,06,7.10
2014,04,14,04,07,7.00
2014,04,14,04,08,6.90
2014,04,14,04,09,6.80
2014,04,14,04,10,6.80
2014,04,14,04,11,6.70
2014,04,14,04,12,6.70
2014,04,14,04,13,6.70
2014,04,14,04,14,6.70
2014,04,14,04,15,6.80
2014,04,14,04,16,6.90
2014,04,14,04,17,7.00
2014,04,14,04,18,7.00
2014,04,14,04,19,7.00
2014,04,14,04,20,7.10
2014,04,14,04,21,7.00
2014,04,14,04,22,6.90
2014,04,14,04,23,6.80
2014,04,14,04,24,6.80
2014,04,14,04,25,6.60
2014,04,14,04,26,6.40
2014,04,14,04,27,6.30
2014,04,14,04,28,6.10
2014,04,14,04,29,5.90
2014,04,14,04,30,5.80
2014,04,14,04,31,5.70
2014,04,14,04,32,5.60
2014,04,14,04,33,5.70
2014,04,14,04,34,6.00
2014,04,14,04,35,6.40
2014,04,14,04,36,6.80
2014,04,14,04,37,7.10
2014,04,14,04,38,7.30
2014,04,14,04,39,7.60
2014,04,14,04,40,7.90
2014,04,14,04,41,8.20
2014,04,14,04,42,8.30
2014,04,14,04,43,8.40
2014,04,14,04,44,8.40
2014,04,14,04,45,8.30
2014,04,14,04,46,8.30
2014,04,14,04,47,8.20
2014,04,14,04,48,8.20
2014,04,14,04,49,8.30
2014,04,14,04,50,8.30
2014,04,14,04,51,8.40
2014,04,14,04,52,8.40
2014,04,14,04,53,8.50
2014,04,14,04,54,8.50
2014,04,14,04,55,8.50
2014,04,14,04,56,8.50
2014,04,14,04,57,8.40
2014,04,14,04,58,8.30
2014,04,14,04,59,8.20
2014,04,14,05,00,8.00
2014,04,14,05,01,7.80
2014,04,14,05,02,7.60
2014,04,14,05,03,7.40
2014,04,14,05,04,7.10
2014,04,14,05,05,6.90
2014,04,14,05,06,6.70
2014,04,14,05,07,6.50
2014,04,14,05,08,6.30
2014,04,14,05,09,6.10
2014,04,14,05,10,6.00
2014,04,14,05,11,5.90
2014,04,14,05,12,5.80
2014,04,14,05,13,5.80
2014,04,14,05,14,5.80
2014,04,14,05,15,5.80
2014,04,14,05,16,5.80
2014,04,14,05,17,5.90
2014,04,14,05,18,5.90
2014,04,14,05,19,6.10
2014,04,14,05,20,6.30
2014,04,14,05,21,6.40
2014,04,14,05,22,6.60
2014,04,14,05,23,6.70
2014,04,14,05,24,6.90
2014,04,14,05,25,6.90
2014,04,14,05,26,6.90
2014,04,14,05,27,6.80
2014,04,14,05,28,6.70
2014,04,14,05,29,6.70
2014,04,14,05,30,6.60
2014,04,14,05,31,6.60
2014,04,14,05,32,6.70
2014,04,14,05,33,6.80
2014,04,14,05,34,6.80
2014,04,14,05,35,6.80
2014,04,14,05,36,6.80
2014,04,14,05,37,6.70
2014,04,14,05,38,6.70
2014,04,14,05,39,6.70
2014,04,14,05,40,6.70
2014,04,14,05,41,6.60
2014,04,14,05,42,6.60
2014,04,14,05,43,6.60
2014,04,14,05,44,6.50
2014,04,14,05,45,6.30
2014,04,14,05,46,6.20
2014,04,14,05,47,6.10
2014,04,14,05,48,5.90
2014,04,14,05,49,5.80
2014,04,14,05,50,5.70
2014,04,14,05,51,5.60
2014,04,14,05,52,5.60
2014,04,14,05,53,5.50
2014,04,14,05,54,5.40
2014,04,14,05,55,5.50
2014,04,14,05,56,5.60
2014,04,14,05,57,5.60
2014,04,14,05,58,5.70
2014,04,14,05,59,5.80
2014,04,14,06,00,6.10
2014,04,14,06,01,6.30
2014,04,14,06,02,6.50
2014,04,14,06,03,6.70
2014,04,14,06,04,6.90
2014,04,14,06,05,7.10
2014,04,14,06,06,7.30
2014,04,14,06,07,7.50
2014,04,14,06,08,7.60
2014,04,14,06,09,7.80
2014,04,14,06,10,7.90
2014,04,14,06,11,8.00
2014,04,14,06,12,8.10
2014,04,14,06,13,8.20
2014,04,14,06,14,8.20
2014,04,14,06,15,8.30
2014,04,14,06,16,8.30
2014,04,14,06,17,8.40
2014,04,14,06,18,8.40
2014,04,14,06,19,8.40
2014,04,14,06,20,8.40
2014,04,14,06,21,8.30
2014,04,14,06,22,8.30
2014,04,14,06,23,8.30
2014,04,14,06,24,8.30
2014,04,14,06,25,8.20
2014,04,14,06,26,8.20
2014,04,14,06,27,8.10
2014,04,14,06,28,8.00
2014,04,14,06,29,8.00
2014,04,14,06,30,7.90
2014,04,14,06,31,7.80
2014,04,14,06,32,7.70
2014,04,14,06,33,7.70
2014,04,14,06,34,7.60
2014,04,14,06,35,7.60
2014,04,14,06,36,7.50
2014,04,14,06,37,7.50
2014,04,14,06,38,7.40
2014,04,14,06,39,7.40
2014,04,14,06,40,7.40
2014,04,14,06,41,7.30
2014,04,14,06,42,7.30
2014,04,14,06,43,7.30
2014,04,14,06,44,7.30
2014,04,14,06,45,7.30
2014,04,14,06,46,7.30
2014,04,14,06,47,7.40
2014,04,14,06,48,7.40
2014,04,14,06,49,7.50
2014,04,14,06,50,7.60
2014,04,14,06,51,7.60
2014,04,14,06,52,7.70
2014,04,14,06,53,7.70
2014,04,14,06,54,7.70
2014,04,14,06,55,7.70
2014,04,14,06,56,7.70
2014,04,14,06,57,7.70
2014,04,14,06,58,7.70
2014,04,14,06,59,7.60
2014,04,14,07,00,7.50
2014,04,14,07,01,7.50
2014,04,14,07,02,7.40
2014,04,14,07,03,7.40
2014,04,14,07,04,7.40
2014,04,14,07,05,7.30
2014,04,14,07,06,7.30
2014,04,14,07,07,7.30
2014,04,14,07,08,7.30
2014,04,14,07,09,7.40
2014,04,14,07,10,7.50
2014,04,14,07,11,7.60
2014,04,14,07,12,7.70
2014,04,14,07,13,7.80
2014,04,14,07,14,7.80
2014,04,14,07,15,7.80
2014,04,14,07,16,7.70
2014,04,14,07,17,7.70
2014,04,14,07,18,7.80
2014,04,14,07,19,7.80
2014,04,14,07,20,7.90
2014,04,14,07,21,8.00
2014,04,14,07,22,8.20
2014,04,14,07,23,8.30
2014,04,14,07,24,8.30
2014,04,14,07,25,8.40
2014,04,14,07,26,8.50
2014,04,14,07,27,8.60
2014,04,14,07,28,8.70
2014,04,14,07,29,8.80
2014,04,14,07,30,8.80
2014,04,14,07,31,8.90
2014,04,14,07,32,8.90
2014,04,14,07,33,8.90
2014,04,14,07,34,9.00
2014,04,14,07,35,9.00
2014,04,14,07,36,9.10
2014,04,14,07,37,9.00
2014,04,14,07,38,9.00
2014,04,14,07,39,9.00
2014,04,14,07,40,9.00
2014,04,14,07,41,9.00
2014,04,14,07,42,9.00
2014,04,14,07,43,9.00
2014,04,14,07,44,9.00
2014,04,14,07,45,9.00
2014,04,14,07,46,8.90
2014,04,14,07,47,8.90
2014,04,14,07,48,8.90
2014,04,14,07,49,8.90
2014,04,14,07,50,8.80
2014,04,14,07,51,8.80
2014,04,14,07,52,8.80
2014,04,14,07,53,8.80
2014,04,14,07,54,8.80
2014,04,14,07,55,8.70
2014,04,14,07,56,8.70
2014,04,14,07,57,8.70
2014,04,14,07,58,8.70
2014,04,14,07,59,8.60
2014,04,14,08,00,8.60
2014,04,14,08,01,8.60
2014,04,14,08,02,8.60
2014,04,14,08,03,8.50
2014,04,14,08,04,8.50
2014,04,14,08,05,8.40
2014,04,14,08,06,8.40
2014,04,14,08,07,8.40
2014,04,14,08,08,8.40
2014,04,14,08,09,8.40
2014,04,14,08,10,8.40
2014,04,14,08,11,8.50
2014,04,14,08,12,8.50
2014,04,14,08,13,8.50
2014,04,14,08,14,8.60
2014,04,14,08,15,8.60
2014,04,14,08,16,8.60
2014,04,14,08,17,8.70
2014,04,14,08,18,8.80
2014,04,14,08,19,8.80
2014,04,14,08,20,8.80
2014,04,14,08,21,8.90
2014,04,14,08,22,8.90
2014,04,14,08,23,9.00
2014,04,14,08,24,9.10
2014,04,14,08,25,9.10
2014,04,14,08,26,9.20
2014,04,14,08,27,9.20
2014,04,14,08,28,9.20
2014,04,14,08,29,9.30
2014,04,14,08,30,9.30
2014,04,14,08,31,9.40
2014,04,14,08,32,9.40
2014,04,14,08,33,9.50
2014,04,14,08,34,9.60
2014,04,14,08,35,9.60
2014,04,14,08,36,9.70
2014,04,14,08,37,9.80
2014,04,14,08,38,10.00
2014,04,14,08,39,10.10
2014,04,14,08,40,10.20
2014,04,14,08,41,10.50
2014,04,14,08,42,10.80
2014,04,14,08,43,11.00
2014,04,14,08,44,11.20
2014,04,14,08,45,11.30
2014,04,14,08,46,11.40
2014,04,14,08,47,11.50
2014,04,14,08,48,11.60
2014,04,14,08,49,11.60
2014,04,14,08,50,11.60
2014,04,14,08,51,11.70
2014,04,14,08,52,11.70
2014,04,14,08,53,11.70
2014,04,14,08,54,11.70
2014,04,14,08,55,11.60
2014,04,14,08,56,11.50
2014,04,14,08,57,11.40
2014,04,14,08,58,11.30
2014,04,14,08,59,11.20
2014,04,14,09,00,11.20
2014,04,14,09,01,11.30
2014,04,14,09,02,11.30
2014,04,14,09,03,11.40
2014,04,14,09,04,11.40
2014,04,14,09,05,11.40
2014,04,14,09,06,11.50
2014,04,14,09,07,11.60
2014,04,14,09,08,11.60
2014,04,14,09,09,11.60
2014,04,14,09,10,11.60
2014,04,14,09,11,11.70
2014,04,14,09,12,11.70
2014,04,14,09,13,11.70
2014,04,14,09,14,11.70
2014,04,14,09,15,11.80
2014,04,14,09,16,11.80
2014,04,14,09,17,11.90
2014,04,14,09,18,11.90
2014,04,14,09,19,11.90
2014,04,14,09,20,11.90
2014,04,14,09,21,12.00
2014,04,14,09,22,12.00
2014,04,14,09,23,12.00
2014,04,14,09,24,12.00
2014,04,14,09,25,12.10
2014,04,14,09,26,12.10
2014,04,14,09,27,12.10
2014,04,14,09,28,12.20
2014,04,14,09,29,12.20
2014,04,14,09,30,12.20
2014,04,14,09,31,12.30
2014,04,14,09,32,12.30
2014,04,14,09,33,12.30
2014,04,14,09,34,12.30
2014,04,14,09,35,12.20
2014,04,14,09,36,12.30
2014,04,14,09,37,12.30
2014,04,14,09,38,12.30
2014,04,14,09,39,12.30
2014,04,14,09,40,12.30
2014,04,14,09,41,12.40
2014,04,14,09,42,12.50
2014,04,14,09,43,12.60
2014,04,14,09,44,12.60
2014,04,14,09,45,12.60
2014,04,14,09,46,12.70
2014,04,14,09,47,12.70
2014,04,14,09,48,12.80
2014,04,14,09,49,12.80
2014,04,14,09,50,12.80
2014,04,14,09,51,13.00
2014,04,14,09,52,13.00
2014,04,14,09,53,13.10
2014,04,14,09,54,13.10
2014,04,14,09,55,13.10
2014,04,14,09,56,13.10
2014,04,14,09,57,13.10
2014,04,14,09,58,13.10
2014,04,14,09,59,13.00
2014,04,14,10,00,12.90
2014,04,14,10,01,12.80
2014,04,14,10,02,12.80
2014,04,14,10,03,12.70
2014,04,14,10,04,12.70
2014,04,14,10,05,12.70
2014,04,14,10,06,12.70
2014,04,14,10,07,12.80
2014,04,14,10,08,12.80
2014,04,14,10,09,12.80
2014,04,14,10,10,12.80
2014,04,14,10,11,12.90
2014,04,14,10,12,12.90
2014,04,14,10,13,13.00
2014,04,14,10,14,13.00
2014,04,14,10,15,13.00
2014,04,14,10,16,13.00
2014,04,14,10,17,13.10
2014,04,14,10,18,13.10
2014,04,14,10,19,13.20
2014,04,14,10,20,13.30
2014,04,14,10,21,13.30
2014,04,14,10,22,13.40
2014,04,14,10,23,13.40
2014,04,14,10,24,13.40
2014,04,14,10,25,13.40
2014,04,14,10,26,13.40
2014,04,14,10,27,13.40
2014,04,14,10,28,13.40
2014,04,14,10,29,13.30
2014,04,14,10,30,13.40
2014,04,14,10,31,13.40
2014,04,14,10,32,13.30
2014,04,14,10,33,13.30
2014,04,14,10,34,13.20
2014,04,14,10,35,13.10
2014,04,14,10,36,13.10
2014,04,14,10,37,13.10
2014,04,14,10,38,13.10
2014,04,14,10,39,13.10
2014,04,14,10,40,13.10
2014,04,14,10,41,13.10
2014,04,14,10,42,13.10
2014,04,14,10,43,13.10
2014,04,14,10,44,13.10
2014,04,14,10,45,13.10
2014,04,14,10,46,13.00
2014,04,14,10,47,12.90
2014,04,14,10,48,12.90
2014,04,14,10,49,12.80
2014,04,14,10,50,12.70
2014,04,14,10,51,12.60
2014,04,14,10,52,12.60
2014,04,14,10,53,12.50
2014,04,14,10,54,12.50
2014,04,14,10,55,12.40
2014,04,14,10,56,12.40
2014,04,14,10,57,12.40
2014,04,14,10,58,12.30
2014,04,14,10,59,12.30
2014,04,14,11,00,12.20
2014,04,14,11,01,12.20
2014,04,14,11,02,12.20
2014,04,14,11,03,12.20
2014,04,14,11,04,12.20
2014,04,14,11,05,12.10
2014,04,14,11,06,12.10
2014,04,14,11,07,12.10
2014,04,14,11,08,12.10
2014,04,14,11,09,12.20
2014,04,14,11,10,12.20
2014,04,14,11,11,12.20
2014,04,14,11,12,12.20
2014,04,14,11,13,12.20
2014,04,14,11,14,12.20
2014,04,14,11,15,12.20
2014,04,14,11,16,12.10
2014,04,14,11,17,12.00
2014,04,14,11,18,12.00
2014,04,14,11,19,11.90
2014,04,14,11,20,11.90
2014,04,14,11,21,11.90
2014,04,14,11,22,11.90
2014,04,14,11,23,11.90
2014,04,14,11,24,11.90
2014,04,14,11,25,11.90
2014,04,14,11,26,11.90
2014,04,14,11,27,11.90
2014,04,14,11,28,11.90
2014,04,14,11,29,11.90
2014,04,14,11,30,12.00
2014,04,14,11,31,12.00
2014,04,14,11,32,12.00
2014,04,14,11,33,12.00
2014,04,14,11,34,12.00
2014,04,14,11,35,12.00
2014,04,14,11,36,12.10
2014,04,14,11,37,12.20
2014,04,14,11,38,12.20
2014,04,14,11,39,12.30
2014,04,14,11,40,12.30
2014,04,14,11,41,12.30
2014,04,14,11,42,12.40
2014,04,14,11,43,12.40
2014,04,14,11,44,12.40
2014,04,14,11,45,12.40
2014,04,14,11,46,12.50
2014,04,14,11,47,12.50
2014,04,14,11,48,12.60
2014,04,14,11,49,12.70
2014,04,14,11,50,12.70
2014,04,14,11,51,12.70
2014,04,14,11,52,12.80
2014,04,14,11,53,12.80
2014,04,14,11,54,12.90
2014,04,14,11,55,13.00
2014,04,14,11,56,13.20
2014,04,14,11,57,13.20
2014,04,14,11,58,13.20
2014,04,14,11,59,13.20
2014,04,14,12,00,13.30
2014,04,14,12,01,13.40
2014,04,14,12,02,13.50
2014,04,14,12,03,13.70
2014,04,14,12,04,13.70
2014,04,14,12,05,13.70
2014,04,14,12,06,13.70
2014,04,14,12,07,13.70
2014,04,14,12,08,13.70
2014,04,14,12,09,13.70
2014,04,14,12,10,13.80
2014,04,14,12,11,14.10
2014,04,14,12,12,14.20
2014,04,14,12,13,14.20
2014,04,14,12,14,14.20
2014,04,14,12,15,14.10
2014,04,14,12,16,14.10
2014,04,14,12,17,14.10
2014,04,14,12,18,14.10
2014,04,14,12,19,14.10
2014,04,14,12,20,14.10
2014,04,14,12,21,14.10
2014,04,14,12,22,14.10
2014,04,14,12,23,14.20
2014,04,14,12,24,14.20
2014,04,14,12,25,14.20
2014,04,14,12,26,14.20
2014,04,14,12,27,14.20
2014,04,14,12,28,14.30
2014,04,14,12,29,14.40
2014,04,14,12,30,14.50
2014,04,14,12,31,14.40
2014,04,14,12,32,14.20
2014,04,14,12,33,14.00
2014,04,14,12,34,13.90
2014,04,14,12,35,13.80
2014,04,14,12,36,13.80
2014,04,14,12,37,13.80
2014,04,14,12,38,13.80
2014,04,14,12,39,13.80
2014,04,14,12,40,13.90
2014,04,14,12,41,14.00
2014,04,14,12,42,14.10
2014,04,14,12,43,14.00
2014,04,14,12,44,14.00
2014,04,14,12,45,13.90
2014,04,14,12,46,13.80
2014,04,14,12,47,13.80
2014,04,14,12,48,13.70
2014,04,14,12,49,13.60
2014,04,14,12,50,13.50
2014,04,14,12,51,13.20
2014,04,14,12,52,12.90
2014,04,14,12,53,12.80
2014,04,14,12,54,12.60
2014,04,14,12,55,12.60
2014,04,14,12,56,12.50
2014,04,14,12,57,12.40
2014,04,14,12,58,12.30
2014,04,14,12,59,12.30
2014,04,14,13,00,12.30
2014,04,14,13,01,12.20
2014,04,14,13,02,12.10
2014,04,14,13,03,12.00
2014,04,14,13,04,12.00
2014,04,14,13,05,12.00
2014,04,14,13,06,12.10
2014,04,14,13,07,12.10
2014,04,14,13,08,12.20
2014,04,14,13,09,12.20
2014,04,14,13,10,12.30
2014,04,14,13,11,12.30
2014,04,14,13,12,12.30
2014,04,14,13,13,12.30
2014,04,14,13,14,12.30
2014,04,14,13,15,12.20
2014,04,14,13,16,12.10
2014,04,14,13,17,12.00
2014,04,14,13,18,12.00
2014,04,14,13,19,12.00
2014,04,14,13,20,12.00
2014,04,14,13,21,12.10
2014,04,14,13,22,12.20
2014,04,14,13,23,12.30
2014,04,14,13,24,12.40
2014,04,14,13,25,12.60
2014,04,14,13,26,12.70
2014,04,14,13,27,12.80
2014,04,14,13,28,12.80
2014,04,14,13,29,12.90
2014,04,14,13,30,13.00
2014,04,14,13,31,13.20
2014,04,14,13,32,13.30
2014,04,14,13,33,13.40
2014,04,14,13,34,13.50
2014,04,14,13,35,13.50
2014,04,14,13,36,13.40
2014,04,14,13,37,13.40
2014,04,14,13,38,13.30
2014,04,14,13,39,13.20
2014,04,14,13,40,13.10
2014,04,14,13,41,13.10
2014,04,14,13,42,13.00
2014,04,14,13,43,13.00
2014,04,14,13,44,12.90
2014,04,14,13,45,12.80
2014,04,14,13,46,12.70
2014,04,14,13,47,12.60
2014,04,14,13,48,12.50
2014,04,14,13,49,12.50
2014,04,14,13,50,12.40
2014,04,14,13,51,12.40
2014,04,14,13,52,12.40
2014,04,14,13,53,12.50
2014,04,14,13,54,12.50
2014,04,14,13,55,12.50
2014,04,14,13,56,12.60
2014,04,14,13,57,12.50
2014,04,14,13,58,12.50
2014,04,14,13,59,12.60
2014,04,14,14,00,12.70
2014,04,14,14,01,12.80
2014,04,14,14,02,12.90
2014,04,14,14,03,13.10
2014,04,14,14,04,13.20
2014,04,14,14,05,13.20
2014,04,14,14,06,13.30
2014,04,14,14,07,13.40
2014,04,14,14,08,13.40
2014,04,14,14,09,13.40
2014,04,14,14,10,13.40
2014,04,14,14,11,13.30
2014,04,14,14,12,13.30
2014,04,14,14,13,13.30
2014,04,14,14,14,13.10
2014,04,14,14,15,12.90
2014,04,14,14,16,12.50
2014,04,14,14,17,12.30
2014,04,14,14,18,12.10
2014,04,14,14,19,12.00
2014,04,14,14,20,12.10
2014,04,14,14,21,12.10
2014,04,14,14,22,12.10
2014,04,14,14,23,12.00
2014,04,14,14,24,12.00
2014,04,14,14,25,12.10
2014,04,14,14,26,12.10
2014,04,14,14,27,12.20
2014,04,14,14,28,12.30
2014,04,14,14,29,12.30
2014,04,14,14,30,12.30
2014,04,14,14,31,12.20
2014,04,14,14,32,12.20
2014,04,14,14,33,12.20
2014,04,14,14,34,12.20
2014,04,14,14,35,12.20
2014,04,14,14,36,12.20
2014,04,14,14,37,12.20
2014,04,14,14,38,12.30
2014,04,14,14,39,12.40
2014,04,14,14,40,12.50
2014,04,14,14,41,12.60
2014,04,14,14,42,12.70
2014,04,14,14,43,12.80
2014,04,14,14,44,12.90
2014,04,14,14,45,13.00
2014,04,14,14,46,13.00
2014,04,14,14,47,13.10
2014,04,14,14,48,13.00
2014,04,14,14,49,12.90
2014,04,14,14,50,12.80
2014,04,14,14,51,12.60
2014,04,14,14,52,12.50
2014,04,14,14,53,12.30
2014,04,14,14,54,12.20
2014,04,14,14,55,12.20
2014,04,14,14,56,12.20
2014,04,14,14,57,12.10
2014,04,14,14,58,12.10
2014,04,14,14,59,12.10
2014,04,14,15,00,12.20
2014,04,14,15,01,12.20
2014,04,14,15,02,12.30
2014,04,14,15,03,12.40
2014,04,14,15,04,12.60
2014,04,14,15,05,12.80
2014,04,14,15,06,12.80
2014,04,14,15,07,12.90
2014,04,14,15,08,13.00
2014,04,14,15,09,13.00
2014,04,14,15,10,13.10
2014,04,14,15,11,13.10
2014,04,14,15,12,13.20
2014,04,14,15,13,13.20
2014,04,14,15,14,13.20
2014,04,14,15,15,13.20
2014,04,14,15,16,13.10
2014,04,14,15,17,13.10
2014,04,14,15,18,13.10
2014,04,14,15,19,13.10
2014,04,14,15,20,13.10
2014,04,14,15,21,13.10
2014,04,14,15,22,13.10
2014,04,14,15,23,13.10
2014,04,14,15,24,13.00
2014,04,14,15,25,12.90
2014,04,14,15,26,12.90
2014,04,14,15,27,12.80
2014,04,14,15,28,12.80
2014,04,14,15,29,12.70
2014,04,14,15,30,12.70
2014,04,14,15,31,12.70
2014,04,14,15,32,12.70
2014,04,14,15,33,12.70
2014,04,14,15,34,12.70
2014,04,14,15,35,12.70
2014,04,14,15,36,12.70
2014,04,14,15,37,12.80
2014,04,14,15,38,12.80
2014,04,14,15,39,12.90
2014,04,14,15,40,13.00
2014,04,14,15,41,13.00
2014,04,14,15,42,13.10
2014,04,14,15,43,13.20
2014,04,14,15,44,13.30
2014,04,14,15,45,13.30
2014,04,14,15,46,13.30
2014,04,14,15,47,13.40
2014,04,14,15,48,13.40
2014,04,14,15,49,13.40
2014,04,14,15,50,13.40
2014,04,14,15,51,13.40
2014,04,14,15,52,13.30
2014,04,14,15,53,13.30
2014,04,14,15,54,13.30
2014,04,14,15,55,13.20
2014,04,14,15,56,13.20
2014,04,14,15,57,13.20
2014,04,14,15,58,13.30
2014,04,14,15,59,13.40
2014,04,14,16,00,13.50
2014,04,14,16,01,13.60
2014,04,14,16,02,13.70
2014,04,14,16,03,13.70
2014,04,14,16,04,13.80
2014,04,14,16,05,13.80
2014,04,14,16,06,13.90
2014,04,14,16,07,14.00
2014,04,14,16,08,14.10
2014,04,14,16,09,14.20
2014,04,14,16,10,14.20
2014,04,14,16,11,14.30
2014,04,14,16,12,14.30
2014,04,14,16,13,14.30
2014,04,14,16,14,14.40
2014,04,14,16,15,14.50
2014,04,14,16,16,14.50
2014,04,14,16,17,14.60
2014,04,14,16,18,14.60
2014,04,14,16,19,14.60
2014,04,14,16,20,14.60
2014,04,14,16,21,14.70
2014,04,14,16,22,14.80
2014,04,14,16,23,14.80
2014,04,14,16,24,14.80
2014,04,14,16,25,14.80
2014,04,14,16,26,14.70
2014,04,14,16,27,14.70
2014,04,14,16,28,14.60
2014,04,14,16,29,14.50
2014,04,14,16,30,14.40
2014,04,14,16,31,14.40
2014,04,14,16,32,14.40
2014,04,14,16,33,14.40
2014,04,14,16,34,14.40
2014,04,14,16,35,14.40
2014,04,14,16,36,14.50
2014,04,14,16,37,14.50
2014,04,14,16,38,14.60
2014,04,14,16,39,14.70
2014,04,14,16,40,14.80
2014,04,14,16,41,14.80
2014,04,14,16,42,14.90
2014,04,14,16,43,14.90
2014,04,14,16,44,15.00
2014,04,14,16,45,15.00
2014,04,14,16,46,15.00
2014,04,14,16,47,15.00
2014,04,14,16,48,15.00
2014,04,14,16,49,15.00
2014,04,14,16,50,15.00
2014,04,14,16,51,15.00
2014,04,14,16,52,14.90
2014,04,14,16,53,14.90
2014,04,14,16,54,14.80
2014,04,14,16,55,14.80
2014,04,14,16,56,14.80
2014,04,14,16,57,14.80
2014,04,14,16,58,14.80
2014,04,14,16,59,14.80
2014,04,14,17,00,14.70
2014,04,14,17,01,14.70
2014,04,14,17,02,14.70
2014,04,14,17,03,14.70
2014,04,14,17,04,14.80
2014,04,14,17,05,14.90
2014,04,14,17,06,15.00
2014,04,14,17,07,15.00
2014,04,14,17,08,15.00
2014,04,14,17,09,15.20
2014,04,14,17,10,15.30
2014,04,14,17,11,15.40
2014,04,14,17,12,15.50
2014,04,14,17,13,15.70
2014,04,14,17,14,15.70
2014,04,14,17,15,15.80
2014,04,14,17,16,15.80
2014,04,14,17,17,15.80
2014,04,14,17,18,15.70
2014,04,14,17,19,15.70
2014,04,14,17,20,15.60
2014,04,14,17,21,15.60
2014,04,14,17,22,15.50
2014,04,14,17,23,15.40
2014,04,14,17,24,15.40
2014,04,14,17,25,15.40
2014,04,14,17,26,15.40
2014,04,14,17,27,15.40
2014,04,14,17,28,15.40
2014,04,14,17,29,15.40
2014,04,14,17,30,15.40
2014,04,14,17,31,15.50
2014,04,14,17,32,15.50
2014,04,14,17,33,15.60
2014,04,14,17,34,15.60
2014,04,14,17,35,15.70
2014,04,14,17,36,15.70
2014,04,14,17,37,15.80
2014,04,14,17,38,15.80
2014,04,14,17,39,15.90
2014,04,14,17,40,15.90
2014,04,14,17,41,16.00